GIA8105 WIMM-OEMA

Flight info

Callsign GIA8105
Flight time N/A
Altitude 36000
Route INANG DCT MABIX P570 TVM UL425 ASPUX N315 SITOL DCT PUSON L883 KITUB Y511 ELONU
Aircraft A333/H-SDE1E2E3FGHIJ1J4J5M1P2RWXY/HB1D1

Departure

Time 2026-04-30 20:02
Airport Kualanamu International Airport (WIMM)

Arrival

Time N/A
Airport Prince Mohammad Bin Abdulaziz Airport (OEMA)
Time Latitude Longitude Altitude Speed Heading
2026-04-30 19:43 3.63866 98.87869 44 ft 0 kts 225°
2026-04-30 19:47 3.63867 98.87870 44 ft 1 kts 225°
2026-04-30 19:47 3.63883 98.87887 41 ft 4 kts 225°
2026-04-30 19:48 3.63899 98.87902 44 ft 4 kts 227°
2026-04-30 19:48 3.63913 98.87922 44 ft 4 kts 269°
2026-04-30 19:48 3.63904 98.87941 44 ft 4 kts 315°
2026-04-30 19:48 3.63885 98.87960 44 ft 4 kts 315°
2026-04-30 19:49 3.63868 98.87977 43 ft 4 kts 315°
2026-04-30 19:49 3.63863 98.87982 44 ft 0 kts 315°
2026-04-30 19:54 3.63869 98.87976 44 ft 3 kts 316°
2026-04-30 19:54 3.63893 98.87964 44 ft 5 kts 340°
2026-04-30 19:54 3.63929 98.87972 43 ft 6 kts 30°
2026-04-30 19:55 3.63967 98.88006 44 ft 8 kts 44°
2026-04-30 19:55 3.64014 98.88052 44 ft 11 kts 44°
2026-04-30 19:55 3.64068 98.88106 44 ft 11 kts 45°
2026-04-30 19:55 3.64131 98.88137 44 ft 10 kts 353°
2026-04-30 19:56 3.64182 98.88098 44 ft 9 kts 316°
2026-04-30 19:56 3.64229 98.88051 42 ft 10 kts 315°
2026-04-30 19:56 3.64281 98.87999 43 ft 11 kts 315°
2026-04-30 19:56 3.64339 98.87993 43 ft 8 kts 32°
2026-04-30 19:57 3.64382 98.88033 43 ft 8 kts 43°
2026-04-30 19:57 3.64402 98.88052 43 ft 8 kts 45°
2026-04-30 19:57 3.64410 98.88060 43 ft 8 kts 45°
2026-04-30 19:57 3.64451 98.88101 43 ft 9 kts 45°
2026-04-30 19:58 3.64498 98.88149 43 ft 10 kts 45°
2026-04-30 19:58 3.64520 98.88170 43 ft 11 kts 45°
2026-04-30 19:58 3.64552 98.88202 41 ft 11 kts 45°
2026-04-30 19:58 3.64608 98.88258 43 ft 11 kts 45°
2026-04-30 19:59 3.64664 98.88314 43 ft 11 kts 45°
2026-04-30 19:59 3.64721 98.88370 43 ft 11 kts 45°
2026-04-30 19:59 3.64838 98.88378 42 ft 10 kts 316°
2026-04-30 20:00 3.64892 98.88324 40 ft 12 kts 315°
2026-04-30 20:00 3.64955 98.88256 38 ft 12 kts 300°
2026-04-30 20:00 3.64947 98.88217 39 ft 5 kts 238°
2026-04-30 20:00 3.64926 98.88195 39 ft 5 kts 225°
2026-04-30 20:01 3.64429 98.87696 38 ft 104 kts 225°
2026-04-30 20:01 3.63798 98.87069 41 ft 151 kts 224°
2026-04-30 20:01 3.62962 98.86234 217 ft 179 kts 225°
2026-04-30 20:02 3.61229 98.84490 1480 ft 184 kts 225°
2026-04-30 20:02 3.60303 98.83574 2000 ft 196 kts 225°
2026-04-30 20:03 3.59142 98.80947 2328 ft 239 kts 282°
2026-04-30 20:03 3.59870 98.79391 2509 ft 256 kts 302°
2026-04-30 20:03 3.60848 98.77850 2889 ft 266 kts 302°
2026-04-30 20:03 3.61801 98.76251 3464 ft 268 kts 299°
2026-04-30 20:04 3.62705 98.74616 4055 ft 270 kts 298°
2026-04-30 20:04 3.63585 98.72943 4621 ft 273 kts 297°
2026-04-30 20:04 3.64453 98.71241 5217 ft 276 kts 296°
2026-04-30 20:05 3.66173 98.67803 6416 ft 280 kts 296°
2026-04-30 20:05 3.67060 98.66054 7017 ft 283 kts 301°
2026-04-30 20:05 3.69648 98.63045 8130 ft 289 kts 315°
2026-04-30 20:06 3.71077 98.61618 8694 ft 292 kts 315°
2026-04-30 20:06 3.72525 98.60173 9247 ft 295 kts 315°
2026-04-30 20:06 3.73982 98.58712 9822 ft 298 kts 315°
2026-04-30 20:06 3.75449 98.57236 10224 ft 300 kts 316°
2026-04-30 20:07 3.76927 98.55744 10340 ft 302 kts 316°
2026-04-30 20:07 3.78350 98.54140 10439 ft 318 kts 305°
2026-04-30 20:07 3.79466 98.49747 10796 ft 350 kts 262°
2026-04-30 20:08 3.78947 98.47316 10973 ft 364 kts 255°
2026-04-30 20:08 3.78277 98.44822 11174 ft 377 kts 254°
2026-04-30 20:08 3.77575 98.42265 11537 ft 384 kts 254°
2026-04-30 20:08 3.76868 98.39669 11964 ft 389 kts 255°
2026-04-30 20:09 3.76158 98.37041 12429 ft 393 kts 255°
2026-04-30 20:09 3.75446 98.34395 12913 ft 396 kts 255°
2026-04-30 20:09 3.74010 98.29038 13866 ft 401 kts 255°
2026-04-30 20:10 3.72554 98.23598 14766 ft 407 kts 255°
2026-04-30 20:10 3.71819 98.20851 15235 ft 410 kts 255°
2026-04-30 20:10 3.71080 98.18085 15664 ft 413 kts 255°
2026-04-30 20:11 3.69584 98.12491 16501 ft 418 kts 255°
2026-04-30 20:11 3.68831 98.09672 16918 ft 421 kts 255°
2026-04-30 20:11 3.68071 98.06833 17318 ft 423 kts 254°
2026-04-30 20:12 3.66535 98.01093 18078 ft 429 kts 254°
2026-04-30 20:12 3.65772 97.98240 18472 ft 431 kts 254°
2026-04-30 20:12 3.64982 97.95293 18805 ft 434 kts 254°
2026-04-30 20:13 3.64200 97.92369 19161 ft 436 kts 255°
2026-04-30 20:13 3.63423 97.89467 19480 ft 439 kts 255°
2026-04-30 20:13 3.62630 97.86506 19804 ft 441 kts 255°
2026-04-30 20:13 3.61833 97.83530 20092 ft 444 kts 254°
2026-04-30 20:14 3.61032 97.80542 20411 ft 446 kts 255°
2026-04-30 20:14 3.60228 97.77539 20694 ft 447 kts 255°
2026-04-30 20:14 3.59415 97.74527 20960 ft 450 kts 253°
2026-04-30 20:14 3.58292 97.71608 21253 ft 450 kts 240°
2026-04-30 20:15 3.56471 97.69069 21519 ft 450 kts 224°
2026-04-30 20:15 3.54047 97.67088 21756 ft 451 kts 213°
2026-04-30 20:15 3.51430 97.65342 22017 ft 453 kts 212°
2026-04-30 20:15 3.48903 97.63448 22269 ft 456 kts 220°
2026-04-30 20:16 3.46736 97.61115 22526 ft 460 kts 232°
2026-04-30 20:16 3.45083 97.58368 22777 ft 463 kts 245°
2026-04-30 20:16 3.44032 97.55322 22987 ft 466 kts 257°
2026-04-30 20:16 3.43578 97.52109 23226 ft 468 kts 265°
2026-04-30 20:17 3.43358 97.48855 23468 ft 470 kts 266°
2026-04-30 20:17 3.43170 97.45586 23709 ft 471 kts 266°
2026-04-30 20:17 3.43042 97.43373 23869 ft 472 kts 266°
2026-04-30 20:17 3.42847 97.40087 24097 ft 474 kts 266°
2026-04-30 20:18 3.42646 97.36790 24313 ft 476 kts 266°
2026-04-30 20:18 3.42440 97.33482 24553 ft 477 kts 266°
2026-04-30 20:18 3.42232 97.30166 24787 ft 478 kts 266°
2026-04-30 20:18 3.42022 97.26838 25020 ft 480 kts 266°
2026-04-30 20:19 3.41814 97.23542 25251 ft 481 kts 266°
2026-04-30 20:19 3.41599 97.20154 25494 ft 483 kts 266°
2026-04-30 20:19 3.41388 97.16840 25712 ft 484 kts 266°
2026-04-30 20:19 3.41173 97.13470 25919 ft 486 kts 266°
2026-04-30 20:20 3.40958 97.10082 26104 ft 489 kts 266°
2026-04-30 20:20 3.40741 97.06680 26308 ft 491 kts 266°
2026-04-30 20:20 3.40524 97.03264 26530 ft 492 kts 266°
2026-04-30 20:20 3.40306 96.99849 26749 ft 493 kts 266°
2026-04-30 20:21 3.40087 96.96418 26968 ft 495 kts 266°
2026-04-30 20:21 3.39867 96.92977 27184 ft 496 kts 266°
2026-04-30 20:21 3.39646 96.89521 27403 ft 498 kts 266°
2026-04-30 20:21 3.39425 96.86060 27617 ft 499 kts 266°
2026-04-30 20:22 3.39203 96.82589 27839 ft 500 kts 266°
2026-04-30 20:22 3.38980 96.79105 28024 ft 503 kts 266°
2026-04-30 20:22 3.38756 96.75621 28218 ft 504 kts 266°
2026-04-30 20:22 3.38531 96.72112 28439 ft 506 kts 266°
2026-04-30 20:23 3.38306 96.68596 28654 ft 507 kts 266°
2026-04-30 20:23 3.38080 96.65070 28850 ft 508 kts 266°
2026-04-30 20:23 3.37853 96.61539 29048 ft 510 kts 266°
2026-04-30 20:23 3.37626 96.57994 29248 ft 511 kts 266°
2026-04-30 20:24 3.37397 96.54439 29411 ft 513 kts 266°
2026-04-30 20:24 3.37168 96.50870 29579 ft 515 kts 266°
2026-04-30 20:24 3.36939 96.47294 29819 ft 514 kts 266°
2026-04-30 20:24 3.36713 96.43724 30063 ft 514 kts 266°
2026-04-30 20:25 3.36266 96.36595 30590 ft 512 kts 266°
2026-04-30 20:25 3.36043 96.33044 30864 ft 511 kts 266°
2026-04-30 20:26 3.35598 96.25960 31379 ft 509 kts 266°
2026-04-30 20:26 3.35153 96.18888 31861 ft 508 kts 266°
2026-04-30 20:26 3.34931 96.15367 32095 ft 508 kts 266°
2026-04-30 20:27 3.34487 96.08323 32561 ft 506 kts 265°
2026-04-30 20:27 3.34042 96.01298 33001 ft 505 kts 265°
2026-04-30 20:28 3.33599 95.94295 33452 ft 503 kts 265°
2026-04-30 20:28 3.33153 95.87306 33837 ft 503 kts 264°
2026-04-30 20:29 3.32711 95.80331 34302 ft 500 kts 264°
2026-04-30 20:30 3.32054 95.69928 34853 ft 499 kts 264°
2026-04-30 20:30 3.31394 95.59552 35394 ft 497 kts 264°
2026-04-30 20:31 3.30734 95.49206 35834 ft 497 kts 265°
2026-04-30 20:32 3.29636 95.32004 35858 ft 497 kts 265°
2026-04-30 20:33 3.28972 95.21652 35858 ft 497 kts 265°
2026-04-30 20:34 3.28310 95.11293 35862 ft 497 kts 265°
2026-04-30 20:35 3.27646 95.00925 35856 ft 498 kts 265°
2026-04-30 20:35 3.26976 94.90553 35862 ft 498 kts 265°
2026-04-30 20:36 3.27136 94.83632 35864 ft 500 kts 279°
2026-04-30 20:37 3.29513 94.73472 35864 ft 501 kts 284°
2026-04-30 20:37 3.31320 94.66749 35861 ft 500 kts 284°
2026-04-30 20:38 3.33116 94.60025 35861 ft 500 kts 284°
2026-04-30 20:38 3.34891 94.53294 35859 ft 500 kts 284°
2026-04-30 20:39 3.37532 94.43199 35859 ft 499 kts 284°
2026-04-30 20:40 3.40168 94.33110 35856 ft 499 kts 284°
2026-04-30 20:40 3.41925 94.26389 35864 ft 499 kts 284°
2026-04-30 20:41 3.44564 94.16304 35862 ft 499 kts 284°
2026-04-30 20:41 3.46320 94.09580 35862 ft 499 kts 284°
2026-04-30 20:42 3.48078 94.02855 35862 ft 499 kts 284°
2026-04-30 20:43 3.50712 93.92770 35869 ft 499 kts 284°
2026-04-30 20:43 3.52466 93.86051 35861 ft 498 kts 284°
2026-04-30 20:44 3.55093 93.75983 35854 ft 498 kts 284°
2026-04-30 20:45 3.58594 93.62558 35854 ft 498 kts 284°
2026-04-30 20:45 3.60344 93.55847 35859 ft 498 kts 284°
2026-04-30 20:46 3.63844 93.42418 35855 ft 498 kts 284°
2026-04-30 20:47 3.66456 93.32386 35848 ft 499 kts 284°
2026-04-30 20:48 3.69093 93.22256 35851 ft 499 kts 284°
2026-04-30 20:48 3.70833 93.15569 35845 ft 499 kts 284°
2026-04-30 20:49 3.72582 93.08841 35848 ft 499 kts 284°
2026-04-30 20:50 3.75205 92.98752 35854 ft 499 kts 284°
2026-04-30 20:50 3.76953 92.92028 35847 ft 499 kts 284°
2026-04-30 20:51 3.78701 92.85301 35859 ft 499 kts 284°
2026-04-30 20:51 3.81322 92.75207 35852 ft 499 kts 284°
2026-04-30 20:52 3.83069 92.68478 35857 ft 499 kts 284°
2026-04-30 20:53 3.85688 92.58383 35861 ft 499 kts 284°
2026-04-30 20:53 3.87434 92.51656 35862 ft 499 kts 284°
2026-04-30 20:54 3.90046 92.41575 35856 ft 498 kts 284°
2026-04-30 20:55 3.92655 92.31508 35865 ft 498 kts 284°
2026-04-30 20:55 3.94394 92.24792 35855 ft 498 kts 284°
2026-04-30 20:56 3.96998 92.14728 35857 ft 498 kts 284°
2026-04-30 20:57 3.99602 92.04668 35868 ft 498 kts 284°
2026-04-30 20:57 4.01331 91.97958 35866 ft 498 kts 283°
2026-04-30 20:58 4.03871 91.87878 35854 ft 498 kts 283°
2026-04-30 20:58 4.05559 91.81157 35852 ft 498 kts 283°
2026-04-30 20:59 4.08096 91.71070 35863 ft 498 kts 283°
2026-04-30 21:00 4.11478 91.57630 35860 ft 497 kts 283°
2026-04-30 21:01 4.13724 91.48694 35862 ft 497 kts 283°
2026-04-30 21:02 4.16251 91.38644 35855 ft 496 kts 283°
2026-04-30 21:02 4.17932 91.31948 35868 ft 496 kts 283°
2026-04-30 21:03 4.19613 91.25249 35859 ft 496 kts 283°
2026-04-30 21:03 4.21288 91.18570 35859 ft 494 kts 283°
2026-04-30 21:04 4.22960 91.11909 35854 ft 492 kts 283°
2026-04-30 21:04 4.25460 91.01948 35863 ft 491 kts 283°
2026-04-30 21:05 4.27125 90.95307 35867 ft 491 kts 283°
2026-04-30 21:05 4.28787 90.88671 35879 ft 491 kts 283°
2026-04-30 21:06 4.30447 90.82043 35866 ft 490 kts 283°
2026-04-30 21:06 4.32105 90.75421 35875 ft 490 kts 283°
2026-04-30 21:07 4.33762 90.68802 35865 ft 490 kts 283°
2026-04-30 21:07 4.35416 90.62189 35863 ft 489 kts 283°
2026-04-30 21:08 4.37069 90.55579 35878 ft 489 kts 283°
2026-04-30 21:08 4.38720 90.48972 35873 ft 489 kts 283°
2026-04-30 21:09 4.40372 90.42363 35864 ft 489 kts 283°
2026-04-30 21:09 4.42098 90.35767 35877 ft 489 kts 285°
2026-04-30 21:10 4.43947 90.29208 35867 ft 489 kts 285°
2026-04-30 21:10 4.45812 90.22653 35864 ft 489 kts 285°
2026-04-30 21:11 4.47662 90.16093 35876 ft 489 kts 285°
2026-04-30 21:11 4.49501 90.09532 35869 ft 489 kts 285°
2026-04-30 21:12 4.51339 90.02972 35862 ft 489 kts 285°
2026-04-30 21:12 4.53175 89.96410 35870 ft 489 kts 285°
2026-04-30 21:13 4.55009 89.89857 35864 ft 488 kts 285°
2026-04-30 21:13 4.56841 89.83306 35865 ft 488 kts 285°
2026-04-30 21:14 4.58671 89.76762 35873 ft 488 kts 285°
2026-04-30 21:14 4.60501 89.70220 35880 ft 488 kts 285°
2026-04-30 21:15 4.62330 89.63675 35864 ft 488 kts 285°
2026-04-30 21:15 4.64157 89.57132 35878 ft 488 kts 285°
2026-04-30 21:16 4.65986 89.50585 35865 ft 488 kts 285°
2026-04-30 21:16 4.67814 89.44036 35871 ft 487 kts 285°
2026-04-30 21:17 4.69639 89.37498 35861 ft 487 kts 285°
2026-04-30 21:17 4.71461 89.30965 35881 ft 487 kts 285°
2026-04-30 21:18 4.73284 89.24426 35881 ft 487 kts 285°
2026-04-30 21:18 4.75105 89.17890 35880 ft 487 kts 285°
2026-04-30 21:19 4.76928 89.11350 35880 ft 487 kts 285°
2026-04-30 21:19 4.78750 89.04806 35880 ft 487 kts 285°
2026-04-30 21:20 4.80571 88.98265 35880 ft 487 kts 285°
2026-04-30 21:20 4.82388 88.91729 35880 ft 487 kts 285°
2026-04-30 21:21 4.84204 88.85197 35869 ft 486 kts 285°
2026-04-30 21:22 4.86914 88.75460 35876 ft 484 kts 285°
2026-04-30 21:23 4.90531 88.62444 35858 ft 484 kts 285°
2026-04-30 21:23 4.93239 88.52690 35870 ft 484 kts 285°
2026-04-30 21:24 4.95043 88.46183 35876 ft 484 kts 285°
2026-04-30 21:24 4.96847 88.39681 35868 ft 484 kts 285°
2026-04-30 21:25 4.99549 88.29928 35867 ft 484 kts 285°
2026-04-30 21:26 5.02250 88.20186 35869 ft 483 kts 285°
2026-04-30 21:27 5.04947 88.10446 35874 ft 483 kts 285°
2026-04-30 21:27 5.06743 88.03956 35863 ft 483 kts 285°
2026-04-30 21:28 5.09389 87.94204 35863 ft 483 kts 284°
2026-04-30 21:29 5.11954 87.84435 35864 ft 483 kts 284°
2026-04-30 21:30 5.16236 87.68172 35874 ft 482 kts 284°
2026-04-30 21:31 5.20504 87.51973 35864 ft 482 kts 285°
2026-04-30 21:32 5.23072 87.42219 35870 ft 482 kts 284°
2026-04-30 21:32 5.24783 87.35714 35864 ft 482 kts 284°
2026-04-30 21:33 5.27345 87.25965 35869 ft 482 kts 284°
2026-04-30 21:34 5.29054 87.19463 35868 ft 482 kts 284°
2026-04-30 21:34 5.31614 87.09712 35868 ft 482 kts 284°
2026-04-30 21:35 5.33321 87.03213 35860 ft 482 kts 284°
2026-04-30 21:35 5.35026 86.96716 35870 ft 482 kts 284°
2026-04-30 21:36 5.36730 86.90218 35872 ft 481 kts 284°
2026-04-30 21:37 5.40133 86.77229 35869 ft 481 kts 284°
2026-04-30 21:37 5.41835 86.70728 35879 ft 481 kts 284°
2026-04-30 21:38 5.43535 86.64235 35874 ft 481 kts 284°
2026-04-30 21:38 5.45233 86.57745 35870 ft 481 kts 284°
2026-04-30 21:39 5.46931 86.51255 35879 ft 481 kts 284°
2026-04-30 21:39 5.48627 86.44765 35879 ft 481 kts 284°
2026-04-30 21:40 5.50320 86.38281 35881 ft 480 kts 284°
2026-04-30 21:40 5.52013 86.31801 35881 ft 480 kts 284°
2026-04-30 21:41 5.53705 86.25319 35879 ft 480 kts 284°
2026-04-30 21:41 5.55395 86.18842 35880 ft 480 kts 284°
2026-04-30 21:42 5.57082 86.12366 35865 ft 480 kts 284°
2026-04-30 21:42 5.58760 86.05932 35880 ft 479 kts 284°
2026-04-30 21:43 5.60172 86.00511 35878 ft 479 kts 284°
2026-04-30 21:43 5.62132 85.92988 35864 ft 479 kts 284°
2026-04-30 21:44 5.63817 85.86514 35874 ft 479 kts 284°
2026-04-30 21:44 5.65500 85.80045 35877 ft 479 kts 284°
2026-04-30 21:45 5.67184 85.73571 35880 ft 479 kts 284°
2026-04-30 21:45 5.68867 85.67095 35863 ft 479 kts 284°
2026-04-30 21:46 5.70549 85.60621 35880 ft 479 kts 284°
2026-04-30 21:46 5.71959 85.55195 35879 ft 479 kts 284°
2026-04-30 21:47 5.73627 85.48764 35879 ft 479 kts 284°
2026-04-30 21:47 5.75317 85.42245 35870 ft 480 kts 284°
2026-04-30 21:48 5.76998 85.35762 35882 ft 480 kts 284°
2026-04-30 21:48 5.78667 85.29320 35881 ft 480 kts 284°
2026-04-30 21:49 5.80348 85.22834 35881 ft 480 kts 284°
2026-04-30 21:49 5.82026 85.16352 35881 ft 480 kts 284°
2026-04-30 21:50 5.83704 85.09868 35880 ft 480 kts 284°
2026-04-30 21:50 5.85380 85.03387 35879 ft 480 kts 284°
2026-04-30 21:51 5.87056 84.96903 35880 ft 479 kts 284°
2026-04-30 21:51 5.88730 84.90422 35882 ft 479 kts 284°
2026-04-30 21:52 5.90403 84.83941 35880 ft 479 kts 284°
2026-04-30 21:52 5.92077 84.77460 35865 ft 479 kts 284°
2026-04-30 21:53 5.93749 84.70982 35879 ft 479 kts 284°
2026-04-30 21:53 5.95419 84.64506 35880 ft 479 kts 284°
2026-04-30 21:54 5.97087 84.58030 35882 ft 479 kts 284°
2026-04-30 21:54 5.98754 84.51559 35880 ft 479 kts 284°
2026-04-30 21:55 6.00419 84.45089 35880 ft 478 kts 283°
2026-04-30 21:55 6.02083 84.38625 35881 ft 478 kts 283°
2026-04-30 21:56 6.03744 84.32168 35881 ft 477 kts 283°
2026-04-30 21:56 6.05404 84.25706 35881 ft 478 kts 283°
2026-04-30 21:57 6.07064 84.19246 35868 ft 477 kts 283°
2026-04-30 21:57 6.08723 84.12789 35880 ft 478 kts 283°
2026-04-30 21:58 6.10381 84.06325 35880 ft 478 kts 283°
2026-04-30 21:58 6.12038 83.99865 35880 ft 477 kts 283°
2026-04-30 21:59 6.13695 83.93403 35881 ft 478 kts 283°
2026-04-30 22:00 6.16175 83.83711 35881 ft 477 kts 283°
2026-04-30 22:00 6.18657 83.74015 35881 ft 477 kts 283°
2026-04-30 22:01 6.20309 83.67554 35879 ft 477 kts 283°
2026-04-30 22:01 6.21960 83.61096 35877 ft 477 kts 283°
2026-04-30 22:02 6.23609 83.54637 35880 ft 477 kts 283°
2026-04-30 22:02 6.25257 83.48181 35879 ft 477 kts 284°
2026-04-30 22:03 6.26904 83.41728 35880 ft 476 kts 284°
2026-04-30 22:03 6.28550 83.35274 35882 ft 476 kts 283°
2026-04-30 22:04 6.30178 83.28876 35879 ft 475 kts 284°
2026-04-30 22:05 6.32639 83.19225 35867 ft 475 kts 284°
2026-04-30 22:05 6.34279 83.12785 35880 ft 475 kts 284°
2026-04-30 22:06 6.35916 83.06348 35880 ft 475 kts 284°
2026-04-30 22:06 6.38368 82.96700 35880 ft 475 kts 284°
2026-04-30 22:07 6.40002 82.90270 35880 ft 475 kts 284°
2026-04-30 22:07 6.41633 82.83844 35865 ft 475 kts 284°
2026-04-30 22:08 6.43265 82.77412 35881 ft 474 kts 284°
2026-04-30 22:08 6.44894 82.70989 35881 ft 474 kts 284°
2026-04-30 22:09 6.46523 82.64564 35882 ft 474 kts 284°
2026-04-30 22:09 6.48153 82.58135 35881 ft 474 kts 284°
2026-04-30 22:10 6.49778 82.51716 35879 ft 474 kts 284°
2026-04-30 22:10 6.51404 82.45286 35875 ft 474 kts 284°
2026-04-30 22:11 6.53840 82.35649 35864 ft 475 kts 284°
2026-04-30 22:12 6.55468 82.29213 35879 ft 475 kts 284°
2026-04-30 22:12 6.57096 82.22767 35881 ft 475 kts 284°
2026-04-30 22:13 6.58718 82.16337 35880 ft 475 kts 284°
2026-04-30 22:13 6.60344 82.09892 35880 ft 475 kts 284°
2026-04-30 22:14 6.61968 82.03450 35867 ft 475 kts 284°
2026-04-30 22:14 6.63591 81.97011 35880 ft 475 kts 284°
2026-04-30 22:15 6.65217 81.90576 35881 ft 474 kts 284°
2026-04-30 22:15 6.66842 81.84149 35863 ft 474 kts 284°
2026-04-30 22:16 6.68465 81.77720 35880 ft 474 kts 284°
2026-04-30 22:17 6.71706 81.64862 35880 ft 474 kts 284°
2026-04-30 22:17 6.74136 81.55213 35881 ft 474 kts 284°
2026-04-30 22:18 6.76566 81.45564 35881 ft 474 kts 284°
2026-04-30 22:19 6.78991 81.35917 35879 ft 474 kts 284°
2026-04-30 22:20 6.81415 81.26270 35873 ft 474 kts 284°
2026-04-30 22:20 6.83837 81.16622 35869 ft 474 kts 284°
2026-04-30 22:21 6.85451 81.10188 35881 ft 474 kts 284°
2026-04-30 22:21 6.87064 81.03755 35871 ft 474 kts 284°
2026-04-30 22:22 6.88666 80.97359 35876 ft 474 kts 284°
2026-04-30 22:22 6.90272 80.90924 35861 ft 474 kts 284°
2026-04-30 22:23 6.91878 80.84488 35880 ft 474 kts 284°
2026-04-30 22:23 6.93483 80.78052 35881 ft 474 kts 284°
2026-04-30 22:24 6.95088 80.71619 35864 ft 474 kts 284°
2026-04-30 22:24 6.96691 80.65184 35863 ft 474 kts 284°
2026-04-30 22:25 6.98294 80.58745 35862 ft 474 kts 284°
2026-04-30 22:25 6.99898 80.52301 35864 ft 474 kts 284°
2026-04-30 22:26 7.02301 80.42635 35872 ft 474 kts 284°
2026-04-30 22:27 7.03902 80.36194 35854 ft 474 kts 284°
2026-04-30 22:27 7.06300 80.26534 35855 ft 474 kts 284°
2026-04-30 22:28 7.08696 80.16872 35856 ft 474 kts 284°
2026-04-30 22:29 7.11890 80.03987 35865 ft 475 kts 284°
2026-04-30 22:31 7.18064 79.82771 35861 ft 475 kts 294°
2026-04-30 22:32 7.25190 79.67714 35860 ft 475 kts 295°
2026-04-30 22:33 7.32296 79.52740 35862 ft 475 kts 295°
2026-04-30 22:35 7.39407 79.37706 35865 ft 475 kts 295°
2026-04-30 22:36 7.46512 79.22673 35857 ft 475 kts 295°
2026-04-30 22:37 7.52164 79.10622 35863 ft 475 kts 294°
2026-04-30 22:38 7.57413 78.98413 35866 ft 475 kts 293°
2026-04-30 22:39 7.61337 78.89246 35862 ft 475 kts 293°
2026-04-30 22:40 7.69213 78.70940 35857 ft 474 kts 293°
2026-04-30 22:41 7.75762 78.55697 35850 ft 474 kts 293°
2026-04-30 22:43 7.83603 78.37426 35859 ft 473 kts 293°
2026-04-30 22:44 7.88823 78.25247 35848 ft 473 kts 293°
2026-04-30 22:45 7.96734 78.07053 35854 ft 472 kts 294°
2026-04-30 22:47 8.04807 77.88929 35861 ft 472 kts 294°
2026-04-30 22:48 8.10167 77.76845 35856 ft 472 kts 294°
2026-04-30 22:49 8.18207 77.58706 35863 ft 472 kts 294°
2026-04-30 22:51 8.26239 77.40555 35854 ft 472 kts 294°
2026-04-30 22:52 8.30256 77.31471 35857 ft 472 kts 294°
2026-04-30 22:53 8.35611 77.19349 35853 ft 472 kts 294°
2026-04-30 22:53 8.39624 77.10259 35856 ft 472 kts 294°
2026-04-30 22:55 8.46307 76.95105 35861 ft 473 kts 294°
2026-04-30 22:56 8.50791 76.82615 35853 ft 473 kts 288°
2026-04-30 22:57 8.56017 76.66904 35857 ft 473 kts 288°
2026-04-30 22:58 8.60217 76.54314 35853 ft 473 kts 288°
2026-04-30 22:59 8.66521 76.35401 35856 ft 474 kts 288°